Lexington Weather

Lexington, Massachusetts, USA

53°F
12/10/2019 5:25pm 
  • Lexington Conditions: Overcast
  • Temperature: 53.4°F / 11.9°CColder 0.6°F than last hour.
  • Dew Point: 52.0°FDecreased 0.5°Fsince last hour.
  • Relative Humidity: 95
  • Wind: Wind from WSW WSW 3 mph, 10-min avg: 3 mph, gust: 9 mph
  • Barometer: 29.73 inRising 0.02  inHg/hr Rising Slowly
  • Visibility: 10 miles
  • Rain Today: 0.05 in
  •   

Regional Weather Roundup
for Boston / Norton, MA

        
000
ASUS41 KBOX 091010
RWRBOX

REGIONAL WEATHER ROUNDUP
NATIONAL WEATHER SERVICE BOSTON/NORTON MA
500 AM EST MON DEC 09 2019

NOTE:  "FAIR" INDICATES FEW OR NO CLOUDS BELOW 12,000 FEET WITH NO 
SIGNIFICANT WEATHER AND/OR OBSTRUCTIONS TO VISIBILITY.

MAZALL-091100-
EASTERN MASSACHUSETTS
  
CITY           SKY/WX    TMP DP  RH WIND       PRES   REMARKS
BOSTON         CLOUDY    45  37  73 S13       30.25F                  
BEVERLY        CLOUDY    44  36  73 S7        30.24F                  
LAWRENCE       MOCLDY    37  32  82 SW5       30.26F                  
BEDFORD        LGT RAIN  41  35  79 SW8       30.24F                  
BLUE HILL        N/A     39  37  92 S18       30.23  WCI  30          
NORWOOD        CLOUDY    43  36  76 CALM      30.26F                  
MARSHFIELD     FAIR      45  41  87 S6        30.27F                  
PLYMOUTH       CLOUDY    46  42  86 VRB5      30.28F                  
TAUNTON        CLOUDY    36  33  89 SE3       30.27F                  
NEW BEDFORD    CLOUDY    47  43  86 S7        30.27F                  
$$

MAZALL-091100-
CAPE COD AND THE ISLANDS
  
CITY           SKY/WX    TMP DP  RH WIND       PRES   REMARKS
FALMOUTH       CLOUDY    45  43  93 S6        30.30S                  
HYANNIS        CLOUDY    47  42  83 S10       30.29F                  
CHATHAM        CLOUDY    46  43  89 S7        30.31F                  
PROVINCETOWN   CLOUDY    44  42  93 S9        30.29F                  
NANTUCKET      CLOUDY    48  44  86 S14       30.30F                  
MARTHAS VNYRD  CLOUDY    50  45  83 S12       30.29F                  
$$
 
MAZALL-091100-
CENTRAL AND WESTERN MASSACHUSETTS
  
CITY           SKY/WX    TMP DP  RH WIND       PRES   REMARKS
WORCESTER      MIX PCPN  37  36  96 SW9       30.22F FOG     WCI  30  
FITCHBURG      FAIR      42  35  76 VRB5      30.23F                  
ORANGE         CLOUDY    39  34  82 S9        30.22F                  
SPRINGFIELD    CLOUDY    36  34  93 S3        30.22F                  
WESTFIELD      CLOUDY    31  28  89 S3        30.23F                  
NORTH ADAMS    CLOUDY    43  34  70 VRB5      30.17F                  
PITTSFIELD     CLOUDY    40  35  83 VRB7      30.15F                  
$$
 
RIZALL-091100-
RHODE ISLAND
  
CITY           SKY/WX    TMP DP  RH WIND       PRES   REMARKS
PROVIDENCE     CLOUDY    36  35  96 CALM      30.27F                  
NEWPORT        CLOUDY    50  44  80 S8        30.26F                  
BLOCK ISLAND   LGT RAIN  50  47  89 S13       30.27F                  
SMITHFIELD     LGT RAIN  39  39 100 CALM      30.25F FOG              
WESTERLY       CLOUDY    50  44  80 S6        30.26F                  
$$
 
CTZALL-091100-
CONNECTICUT
  
CITY           SKY/WX    TMP DP  RH WIND       PRES   REMARKS
BRADLEY INTL   DRIZZLE   34  31  88 CALM      30.23F FOG              
HARTFORD       CLOUDY    34  32  92 CALM      30.24F FOG              
BRIDGEPORT     LGT RAIN  39  38  96 CALM      30.23F FOG              
DANBURY        LGT RAIN  35  35 100 CALM      30.22F FOG              
GROTON         CLOUDY    45  44  97 CALM      30.24F FOG              
NEW HAVEN      LGT RAIN  42  39  89 CALM      30.24F FOG              
CHESTER        MIX PCPN  39  37  93 CALM      30.23F                  
MERIDEN        MIX PCPN  34  32  92 CALM      30.24F FOG              
WILLIMANTIC    CLOUDY    30  29  96 CALM      30.26F FOG              
OXFORD         LGT RAIN  39  38  96 CALM      30.22F FOG              
$$

MEZ002-015-021-024-NHZ003-005-008-011-012-014-VTZ005-008-091100-
NORTHERN NEW ENGLAND
  
CITY           SKY/WX    TMP DP  RH WIND       PRES   REMARKS
PORTLAND ME    CLOUDY    38  28  67 S6        30.24S                  
BANGOR ME      LGT RAIN  38  31  76 S9        30.20S WCI  31          
CONCORD NH     CLOUDY    36  31  82 SE5       30.21F                  
MANCHESTER NH  CLOUDY    38  33  82 S8        30.21F                  
NASHUA NH      CLOUDY    36  34  93 CALM      30.23F                  
PORTSMOUTH NH  CLOUDY    38  33  80 CALM      30.22F                  
JAFFREY NH     CLOUDY    37  32  82 S8        30.19F WCI  31          
KEENE NH       CLOUDY    40  34  79 S8        30.20F                  
BURLINGTON VT  CLOUDY    38  28  67 S16G26    30.10S WCI  29          
MT. WASHINGTON SNOWSHWR  23  23 100 W52G59      N/A  VSB 0   WCI   1  
$$

NYZ052-076-091100-
EASTERN NEW YORK
  
CITY           SKY/WX    TMP DP  RH WIND       PRES   REMARKS
ALBANY         CLOUDY    40  30  67 S10       30.17F                  
NEW YORK CITY  LGT RAIN  41  39  93 NE6       30.22F FOG              
$$
 
ANZALL-091100-
MARINE OBSERVATIONS
  
STATION/POSITION TIME  TEMP    WIND        PRES    VSBY  WAVE
                       AIR SEA DIR/SP/G                  HT/PER
                 (UTC) (F)     (DEG/KT/KT) (MB)    (MI)  (FT/S)
BOSTON BUOY      0950   45 47  180/ 16/ 19 1024.0F         2/ 4
BUZZARDS BAY     0900   50     200/ 14/ 15 1025.8F
NANTUCKET SOUND  0940      42                N/A           1/ 3
MASS BAY-STELLWA 0904   45 46  230/ 19/ 23 1023.0R  1 7/8  5/ 5
ISLE OF SHOALS   0900   43     220/ 15/ 17 1023.9F
S OF BLOCK IS    1000      52                N/A           5/ 5
$$

......................KEY.........................
  SKY/WX - SKY CONDITION/PRESENT WEATHER
  TMP    - TEMPERATURE IN FAHRENHEIT
  DWPT   - DEWPOINT IN FAHRENHEIT
  RH     - RELATIVE HUMIDITY IN PERCENT
  WIND   - DIRECTION AND SPEED IN MPH
  PRES   - MEAN SEA LEVEL PRESSURE IN INCHES OF HG
  WCI    - WIND CHILL INDEX
  VSB    - VISIBILITY IN MILES
  HX     - HEAT INDEX
  TC     - TEMPERATURE IN CELSIUS
  VRB    - VARIABLE WIND DIRECTION
  N/A    - NOT AVAILABLE
  
      

Other recent Regional Weather Roundups

Tue Dec 10, 5:00pm

Tue Dec 10, 4:10pm

Tue Dec 10, 4:01pm

Tue Dec 10, 3:10pm

Tue Dec 10, 3:01pm

Tue Dec 10, 2:10pm

Tue Dec 10, 2:01pm

Tue Dec 10, 1:10pm

Tue Dec 10, 1:00pm

Tue Dec 10, 12:10pm

Tue Dec 10, 12:00pm

Tue Dec 10, 11:10am

Tue Dec 10, 11:00am

Tue Dec 10, 10:10am

Tue Dec 10, 10:00am

Tue Dec 10, 9:10am

Tue Dec 10, 9:01am

Tue Dec 10, 8:10am

Tue Dec 10, 8:00am

Tue Dec 10, 7:10am

Tue Dec 10, 7:00am

Tue Dec 10, 6:10am

Tue Dec 10, 6:00am

Tue Dec 10, 5:10am

Tue Dec 10, 5:00am

Tue Dec 10, 4:10am

Tue Dec 10, 4:00am

Tue Dec 10, 3:10am

Tue Dec 10, 3:00am

Tue Dec 10, 2:10am

Tue Dec 10, 2:01am

Tue Dec 10, 1:10am

Tue Dec 10, 1:00am

Tue Dec 10, 12:10am

Tue Dec 10, 12:01am

Mon Dec 9, 11:10pm

Mon Dec 9, 11:01pm

Mon Dec 9, 10:10pm

Mon Dec 9, 10:00pm

Mon Dec 9, 9:10pm

Mon Dec 9, 9:01pm

Mon Dec 9, 8:10pm

Mon Dec 9, 8:01pm

Mon Dec 9, 7:10pm

Mon Dec 9, 7:00pm

Mon Dec 9, 6:10pm

Mon Dec 9, 6:00pm

Mon Dec 9, 5:10pm

Mon Dec 9, 5:01pm

Mon Dec 9, 4:10pm

Mon Dec 9, 4:01pm

Mon Dec 9, 3:10pm

Mon Dec 9, 3:01pm

Mon Dec 9, 2:10pm

Mon Dec 9, 2:00pm

Mon Dec 9, 1:10pm

Mon Dec 9, 1:00pm

Mon Dec 9, 12:10pm

Mon Dec 9, 12:00pm

Mon Dec 9, 11:10am

Mon Dec 9, 11:00am

Mon Dec 9, 10:10am

Mon Dec 9, 10:00am

Mon Dec 9, 9:10am

Mon Dec 9, 9:00am

Mon Dec 9, 8:10am

Mon Dec 9, 8:00am

Mon Dec 9, 7:10am

Mon Dec 9, 7:00am

Mon Dec 9, 6:10am

Mon Dec 9, 6:00am

Mon Dec 9, 5:00am

Mon Dec 9, 4:10am

Mon Dec 9, 4:00am

Mon Dec 9, 3:10am

Mon Dec 9, 3:00am

Mon Dec 9, 2:10am

Mon Dec 9, 2:00am

Mon Dec 9, 1:10am

Mon Dec 9, 1:00am

Mon Dec 9, 12:10am

Mon Dec 9, 12:00am

Sun Dec 8, 11:10pm

Sun Dec 8, 11:00pm

Sun Dec 8, 10:10pm

Sun Dec 8, 10:01pm

Sun Dec 8, 9:10pm

Sun Dec 8, 9:01pm

Sun Dec 8, 8:10pm

Sun Dec 8, 8:00pm

Sun Dec 8, 7:10pm

Sun Dec 8, 7:00pm

Sun Dec 8, 6:10pm

Sun Dec 8, 6:01pm

Sun Dec 8, 5:10pm

Sun Dec 8, 5:00pm

Sun Dec 8, 4:10pm

Sun Dec 8, 4:01pm

Sun Dec 8, 3:10pm

Sun Dec 8, 3:01pm

Sun Dec 8, 2:10pm

Sun Dec 8, 2:01pm

Sun Dec 8, 1:10pm

Sun Dec 8, 1:00pm

Sun Dec 8, 12:10pm

Sun Dec 8, 12:01pm

Sun Dec 8, 11:10am

Sun Dec 8, 11:00am

Sun Dec 8, 10:10am

Sun Dec 8, 10:01am

Sun Dec 8, 9:10am

Sun Dec 8, 9:00am

Sun Dec 8, 8:10am

Sun Dec 8, 8:00am

Sun Dec 8, 7:10am

Sun Dec 8, 7:00am

Sun Dec 8, 6:10am

Sun Dec 8, 6:00am

Sun Dec 8, 5:10am

Sun Dec 8, 5:00am

Sun Dec 8, 4:10am

Sun Dec 8, 4:00am

Sun Dec 8, 3:10am

Sun Dec 8, 3:00am

Sun Dec 8, 2:10am

Sun Dec 8, 2:00am

Sun Dec 8, 1:10am

Sun Dec 8, 1:00am

Sun Dec 8, 12:10am

Sun Dec 8, 12:01am

Sat Dec 7, 11:10pm

Sat Dec 7, 11:00pm

Sat Dec 7, 10:10pm

Sat Dec 7, 10:00pm

Sat Dec 7, 9:10pm

Sat Dec 7, 9:00pm

Sat Dec 7, 8:10pm

Sat Dec 7, 8:00pm

Sat Dec 7, 7:10pm

Sat Dec 7, 7:00pm

Sat Dec 7, 6:10pm

Sat Dec 7, 6:00pm

Meta data:

ID: 34f4c8e6-44de-422b-b75c-fe903db80a4a
Link: https://api.weather.gov/products/34f4c8e6-44de-422b-b75c-fe903db80a4a